Regional Weather Roundup
Issued by NWS

Current Version | Previous Version | Text Only | Print | Product List | Glossary On
Versions: 1 2 3 4 5 6 7 8 9 10 11 12 13 14 15 16 17 18 19 20 21 22 23 24 25 26 27 28 29 30 31 32 33 34 35 36 37 38 39 40 41 42 43 44 45 46 47 48 49 50
000
ASUS46 KSTO 210415
RWRCA

NORTHERN AND CENTRAL CA REGIONAL WEATHER ROUNDUP
NATIONAL WEATHER SERVICE SACRAMENTO CA
800 PM PST FRI JAN 20 2017

NOTE: FAIR INDICATES FEW OR NO CLOUDS BELOW 12,000 FEET WITH NO
SIGNIFICANT WEATHER AND/OR OBSTRUCTIONS TO VISIBILITY.

CAZ001-003-210500-
NORTHWEST AREA

CITY           SKY/WX    TMP DP  RH WIND       PRES   REMARKS
CRESCENT CITY  LGT RAIN  45  42  89 SE16      29.21R FOG
UKIAH          LGT RAIN  44  42  93 E6        29.34R
$$

CAZ006-505>513-210500-
BAY AREA

CITY           SKY/WX    TMP DP  RH WIND       PRES   REMARKS
SANTA ROSA     MOCLDY    46  44  93 SW5       29.37R
SAN RAFAEL     N/A       47  MM  MM MISG
NAPA           CLOUDY    49  44  83 SW10      29.40R
CONCORD        CLOUDY    48  40  73 SW10      29.42R
OAKLAND CITY   N/A      MM  MM  MM MISG
OAKLAND        MOCLDY    51  44  77 W16       29.43R
SAN FRAN CITY  N/A       49  MM  76 MISG
SAN FRAN ARPT  PTCLDY    50  41  71 W13       29.43R
LIVERMORE      LGT RAIN  45  41  86 SW7       29.42R
HAYWARD        LGT RAIN  49  41  74 W9        29.44R
REDWOOD CITY   N/A       46  MM  89 MISG
MOFFETT ARPT   MOCLDY    49  41  74 W8        29.46R
SAN JOSE ARPT  MOCLDY    48  43  82 VRB3      29.47R
$$
CAZ034-037-514>518-210500-
CENTRAL COAST

CITY           SKY/WX    TMP DP  RH WIND       PRES   REMARKS
WATSONVILLE    LGT RAIN  46  46 100 NW5       29.48R
SALINAS        RAIN      46  42  86 CALM      29.49R
MONTEREY       LGT RAIN  47  42  83 W8G21     29.50R
SAN LUIS OBISP MOCLDY    50  45  83 CALM      29.54R
SANTA MARIA    CLOUDY    49  46  90 MISG      29.56R
$$
CAZ015-016-210500-
NORTHERN SACRAMENTO VALLEY

CITY           SKY/WX    TMP DP  RH WIND       PRES   REMARKS
REDDING        CLOUDY    43  41  93 N7        29.26R
RED BLUFF      MOCLDY    48  42  80 SE17      29.27R
OROVILLE       CLOUDY    48  44  86 SE15      29.34R
$$
CAZ016>018-210500-
SOUTHERN SACRAMENTO VALLEY

CITY           SKY/WX    TMP DP  RH WIND       PRES   REMARKS
AUBURN         CLOUDY    43  41  93 S13       29.37R
BEALE AFB      CLOUDY    47  47 100 S15       29.34R
LINCOLN        CLOUDY    45  43  93 S14       29.35R
MARYSVILLE     CLOUDY    48  44  86 S16       29.36R
SAC INTL ARPT  CLOUDY    48  44  86 S16       29.37R
MATHER AIRPORT LGT RAIN  46  43  87 S12       29.39R
DOWNTOWN SAC   N/A       47  MM  MM MISG
SAC EXEC ARPT  LGT RAIN  47  44  90 S9        29.39R
VACAVILLE      CLOUDY    47  44  90 SW13      29.39R
TRAVIS AFB     CLOUDY    46  43  87 SW13      29.37S
$$
CAZ019>021-210500-
SAN JOAQUIN VALLEY

CITY           SKY/WX    TMP DP  RH WIND       PRES   REMARKS
STOCKTON       CLOUDY    45  43  93 S8        29.42R
MODESTO        LGT RAIN  47  40  76 NE6       29.44R
MERCED         CLOUDY    47  42  83 SW9       29.45R
LEMOORE        PTCLDY    48  39  71 NW6       29.48R
FRESNO         CLOUDY    48  45  89 CALM      29.48R
HANFORD        PTCLDY    49  42  77 W5        29.46R
PORTERVILLE    MOCLDY    47  44  90 S8        29.49
BAKERSFIELD    CLOUDY    48  44  86 CALM      29.51R
$$
CAZ011-012-071-210500-
NORTHERN MOUNTAINS

CITY           SKY/WX    TMP DP  RH WIND       PRES   REMARKS
YREKA          CLOUDY    35  30  82 CALM      29.17R
MOUNT SHASTA   CLOUDY    34  31  88 CALM      29.19R
ALTURAS        CLOUDY    32  28  85 CALM      29.19R
$$
CAZ011-012-071-210500-
SIERRA NEVADA MTNS

CITY           SKY/WX    TMP DP  RH WIND       PRES   REMARKS
BLUE CANYON    LGT SNOW  29  28  96 S12G23    29.28R WCI  19
TRUCKEE        LGT SNOW  25  21  86 CALM      29.24S
TAHOE VLY ARPT LGT SNOW  25  21  85 S8        29.24F FOG     WCI  16
MAMMOTH LAKES  HVY SNOW  24  24  99 W9        29.29R VSB 1/4 WCI  14
$$




USA.gov is the U.S. government's official web portal to all federal, state and local government web resources and services.